Powrót do katalogu

METEOR 1-10

AktywnyPogodaPO
NORAD 5731·PAYLOAD·🇷🇺 Russia

Wystrzelony Dec 29, 1971 z Plesetsk Cosmodrome

Loading…

Następne Przeloty (najbliższe 24 godziny)

TLE

ŚwieżeSource: Space-Track

Epoka: Sep 14, 2026, 01:38 UTC

1 05731U 71120A   26257.06807067  .00000167  00000-0  84261-4 0  9992
2 05731  81.2573 293.7629 0023886 161.7337 198.4699 14.11897020808653

Śledź METEOR 1-10 w czasie rzeczywistym z AllMySat

Download on the App Store